Location: *
(41.7492°S, 135.4150°W)
Time: 18:26:05
(UTC+00:00)

Cosmos 1666 - Pass Details

Date: 20 September 2021
Orbit: 496 x 517 km, 82.5° (Epoch: 15 October)

Event Time Altitude Azimuth Distance (km) Brightness Sun altitude
Rises 14:04:33 0° 351° (N) 2,633 6.1 -10.0°
Reaches altitude 10° 14:06:40 10° 350° (N) 1,756 5.2 -9.6°
Maximum altitude 14:10:32 81° 263° (W) 540 2.7 -8.8°
Drops below altitude 10° 14:14:28 10° 174° (S) 1,787 5.6 -8.1°
Sets 14:16:38 0° 173° (S) 2,684 6.5 -7.7°
